Location: Recife
(8.0585°S, 34.8848°W)
Time: 12:32:28
(UTC-03:00)

Vanguard 2 - Pass Details

Date: 21 April 2026
Orbit: 554 x 2894 km, 32.9° (Epoch: 7 May)

Event Time Altitude Azimuth Distance (km) Brightness Sun altitude
Rises 22:32:08 0° 246° (WSW) 5,882 12.2 -78.0°
Enters shadow 22:34:29 - 240° (WSW) 5,507 11.9 -78.5°
Reaches altitude 10° 22:36:47 10° 234° (SW) 5,177 - -79.0°
Maximum altitude 22:49:36 28° 181° (S) 4,359 - -81.9°
Drops below altitude 10° 23:03:28 10° 129° (SE) 5,599 - -84.5°
Sets 23:08:47 0° 117° (ESE) 6,423 - -85.3°
